Overview Statistics Trail Chart Weather Telemetry Raw packets
 

This is the latest recevied weather packets stored in our database for station/object WA6ODQ-13. If no packets are shown the sender has not sent any weather packets the latest 10 day(s).

<< 2 3 4 5 6 7 8 >>
Time Temp. Humidity Pressure Rain* Wind** Luminosity Snow
1788648448 28.89° C 30% 1011.2 hPa 0 mm - 460 W/m² -
1788648143 28.33° C 31% 1011.2 hPa 0 mm - 471 W/m² -
1788647840 28.89° C 30% 1011.2 hPa 0 mm - 483 W/m² -
1788647536 28.89° C 29% 1011.2 hPa 0 mm - 494 W/m² -
1788647232 28.33° C 30% 1011.3 hPa 0 mm - 505 W/m² -
1788646946 28.33° C 31% 1011.1 hPa 0 mm - 516 W/m² -
1788646627 28.89° C 31% 1011.1 hPa 0 mm - 525 W/m² -
1788646324 28.33° C 31% 1011.5 hPa 0 mm - 536 W/m² -
1788646019 28.89° C 31% 1011.3 hPa 0 mm - 544 W/m² -
1788645715 28.89° C 32% 1011.3 hPa 0 mm - 552 W/m² -
1788645414 28.89° C 32% 1011.5 hPa 0 mm - 560 W/m² -
1788645110 28.33° C 33% 1011.5 hPa 0 mm - 568 W/m² -
1788644806 28.89° C 33% 1011.4 hPa 0 mm - 577 W/m² -
1788644502 28.33° C 34% 1011.6 hPa 0 mm - 584 W/m² -
1788644197 28.33° C 34% 1011.4 hPa 0 mm - 593 W/m² -
1788643892 28.33° C 34% 1011.5 hPa 0 mm - 598 W/m² -
1788643586 27.78° C 36% 1011.6 hPa 0 mm - 607 W/m² -
1788643281 27.78° C 37% 1011.7 hPa 0 mm - 611 W/m² -
1788642976 27.78° C 36% 1012 hPa 0 mm - 619 W/m² -
1788642671 27.78° C 33% 1011.8 hPa 0 mm - 622 W/m² -
1788642367 27.78° C 35% 1011.9 hPa 0 mm - 629 W/m² -
1788642062 27.78° C 35% 1012 hPa 0 mm - 634 W/m² -
1788641761 27.78° C 35% 1012 hPa 0 mm - 638 W/m² -
1788641460 27.78° C 37% 1012 hPa 0 mm - 641 W/m² -
1788641155 26.67° C 35% 1011.9 hPa 0 mm - 644 W/m² -

* Rain latest hour (hover to see other rain measurements)
** Current wind speed in m/s (hover to see current wind gust speed)